"Pseudo-MPEC" for P10OvCz

Created 2019 Jun 15 19:09:35 UT using Find_Orb

Click here for an explanation of pseudo-MPECs

 
 Astrometry: 
     P10OvCz  C2019 06 01*ac^BFRAstrometryE@Uw@1mNJqfKktF%IBYuDh!)PdArdsq*iM[F51
     P10OvCz  C2019 06 01d8)8bX4FS4%V0redacted;8Q.,70JY)4,rv'T:t7,67e$7rlp(.4F51
     P10OvCz  C2019 06 0115@yk[(YB]R`28w)h]-/v8V_LANFDM7YVq!9#s1c+$:J-(a:bqn9F51
     P10OvCz  C2019 06 01/%clickx5FL[jyMJ/x%!y4*82.E:J9WAbp*gH?3tTXM'\]Ya9Z`MF51
     P10OvCz  C2019 06 02REed-dYWXjx@:(-b!@60Rc74Kv:+6g85-VCKiT)YSIs5V5kQK!)iF51
     P10OvCz  C2019 06 02li=n]#^%;t2Kq7;KANXDHn!]9,c:5R`-A$here!%[:^P4J!_ap0\F51
     P10OvCz  C2019 06 02Ei'G7\^*hGx#y^1ufTw8Mnb)SIy,Da3ERo*\7QZ:Qr%5lZfLr:uZF51
     P10OvCz KC2019 06 04w()vFforiuaV@m%$OVc1a66gK\Gk/?+^S\f6Yg.N\NB-KXcii$%Z691
     P10OvCz KC2019 06 04E*lu%e[cr=P.v=4*EK3gg@my]\i;aexplanation#`k?RfEqG.i?691

Station data:
(691) Steward Observatory, Kitt Peak - Spacewatch  (N31.962174 W111.600327)
   US/Arizona.  Observer J. V. Scotti. 0.9-m f/3 reflector + CCD.
(F51) Pan-STARRS 1, Haleakala  (N20.707235 W156.255910)  US/Hawaii.
   Observers N. Primak, A. Schultz, S. Watters, J. Thiel, T. Goggia. Measurer
   PS1 Science Consortium. 1.8-m Ritchey-Chrétien + CCD.

Orbital elements:  P10OvCz
   Perihelion 2016 Jul 5.925792 +/- 858 TT = 22:13:08 (JD 2457575.425792)
Epoch 2019 Jun  4.0 TT = JDT 2458638.5                        AutoNEOCP
M  88.40618690 +/- 80               (J2000 ecliptic)
n   0.08316088 +/- 0.0367           Peri.  354.56350 +/- 80
a   5.19824403 +/- 1.53             Node   217.48751 +/- 11
e   0.2047137 +/- 0.257             Incl.   26.54950 +/- 1.6
P  11.85                   H 14.4   G  0.15   U 10.6  SR
q 4.13409193 +/- 1.51    Q 6.26239613 +/- 6.45
From 9 observations 2019 June 1-4; mean residual 0".18
Residuals in arcseconds: 
190601 F51  .06+  .23+    190601 F51  .03+  .12+    190602 F51  .18-  .34-    
190601 F51  .14+  .07+    190602 F51  .15-  .22-    190604 691  .21+  .37+    
190601 F51  .08+  .12+    190602 F51  .13-  .27-    190604 691  .06-  .08-    

Ephemerides (geocentric):
Date (UTC) HH   RA              Dec         delta   r     elong  mag " sig PA
---- -- -- --  -------------   -----------  ------ ------ -----  --- ---- ---
2019 06 15 19  21 56 37.314   +16 33 54.66  5.0536 5.3995 104.6 22.2 60.1 165
2019 06 15 20  21 56 37.254   +16 34 04.88  5.0532 5.3996 104.6 22.2 60.6 165
2019 06 15 21  21 56 37.193   +16 34 15.08  5.0527 5.3996 104.6 22.2 61.0 165
2019 06 15 22  21 56 37.131   +16 34 25.28  5.0522 5.3997 104.7 22.2 61.4 165
2019 06 15 23  21 56 37.067   +16 34 35.47  5.0517 5.3997 104.7 22.2 61.8 165
2019 06 16 00  21 56 37.002   +16 34 45.65  5.0512 5.3998 104.7 22.2 62.2 165
2019 06 16 01  21 56 36.937   +16 34 55.82  5.0507 5.3999 104.8 22.2 62.6 165
2019 06 16 02  21 56 36.870   +16 35 05.99  5.0502 5.3999 104.8 22.2 63.0 165
2019 06 16 03  21 56 36.802   +16 35 16.14  5.0497 5.4000 104.8 22.2 63.5 165
2019 06 16 04  21 56 36.732   +16 35 26.29  5.0492 5.4001 104.9 22.2 63.9 165
2019 06 16 05  21 56 36.662   +16 35 36.43  5.0487 5.4001 104.9 22.2 64.3 165
2019 06 16 06  21 56 36.590   +16 35 46.57  5.0482 5.4002 104.9 22.2 64.7 165
2019 06 16 07  21 56 36.517   +16 35 56.69  5.0477 5.4002 105.0 22.2 65.2 165
2019 06 16 08  21 56 36.443   +16 36 06.81  5.0473 5.4003 105.0 22.2 65.6 165
2019 06 16 09  21 56 36.368   +16 36 16.92  5.0468 5.4004 105.0 22.2 66.0 165
2019 06 16 10  21 56 36.291   +16 36 27.02  5.0463 5.4004 105.1 22.2 66.4 165
2019 06 16 11  21 56 36.214   +16 36 37.12  5.0458 5.4005 105.1 22.2 66.9 165
2019 06 16 12  21 56 36.135   +16 36 47.20  5.0453 5.4005 105.2 22.2 67.3 165
2019 06 16 13  21 56 36.055   +16 36 57.28  5.0448 5.4006 105.2 22.2 67.7 165
2019 06 16 14  21 56 35.974   +16 37 07.35  5.0443 5.4007 105.2 22.2 68.2 165
2019 06 16 15  21 56 35.892   +16 37 17.42  5.0438 5.4007 105.3 22.2 68.6 165
2019 06 16 16  21 56 35.808   +16 37 27.47  5.0433 5.4008 105.3 22.2 69.1 165
2019 06 16 17  21 56 35.724   +16 37 37.52  5.0428 5.4008 105.3 22.2 69.5 165
2019 06 16 18  21 56 35.638   +16 37 47.56  5.0424 5.4009 105.4 22.2 69.9 165
2019 06 16 19  21 56 35.551   +16 37 57.59  5.0419 5.4010 105.4 22.2 70.4 165
2019 06 16 20  21 56 35.463   +16 38 07.61  5.0414 5.4010 105.4 22.2 70.8 165
2019 06 16 21  21 56 35.373   +16 38 17.62  5.0409 5.4011 105.5 22.2 71.3 165
2019 06 16 22  21 56 35.283   +16 38 27.63  5.0404 5.4011 105.5 22.2 71.7 165
2019 06 16 23  21 56 35.191   +16 38 37.63  5.0399 5.4012 105.5 22.2 72.2 165
2019 06 17 00  21 56 35.098   +16 38 47.62  5.0394 5.4013 105.6 22.2 72.6 165
2019 06 17 01  21 56 35.004   +16 38 57.60  5.0389 5.4013 105.6 22.2 73.1 165
2019 06 17 02  21 56 34.909   +16 39 07.58  5.0384 5.4014 105.6 22.2 73.5 165
2019 06 17 03  21 56 34.812   +16 39 17.54  5.0380 5.4015 105.7 22.2 74.0 165
2019 06 17 04  21 56 34.715   +16 39 27.50  5.0375 5.4015 105.7 22.2 74.4 165
2019 06 17 05  21 56 34.616   +16 39 37.45  5.0370 5.4016 105.7 22.2 74.9 165
2019 06 17 06  21 56 34.516   +16 39 47.40  5.0365 5.4016 105.8 22.2 75.4 165
2019 06 17 07  21 56 34.415   +16 39 57.33  5.0360 5.4017 105.8 22.2 75.8 165
2019 06 17 08  21 56 34.312   +16 40 07.26  5.0355 5.4018 105.8 22.2 76.3 165
2019 06 17 09  21 56 34.209   +16 40 17.18  5.0350 5.4018 105.9 22.2 76.8 165
2019 06 17 10  21 56 34.104   +16 40 27.09  5.0345 5.4019 105.9 22.2 77.2 165
2019 06 17 11  21 56 33.998   +16 40 36.99  5.0341 5.4019 105.9 22.2 77.7 165
2019 06 17 12  21 56 33.891   +16 40 46.88  5.0336 5.4020 106.0 22.2 78.2 165
2019 06 17 13  21 56 33.783   +16 40 56.77  5.0331 5.4021 106.0 22.2 78.6 165
2019 06 17 14  21 56 33.674   +16 41 06.65  5.0326 5.4021 106.0 22.2 79.1 165
2019 06 17 15  21 56 33.563   +16 41 16.52  5.0321 5.4022 106.1 22.2 79.6 165
2019 06 17 16  21 56 33.451   +16 41 26.38  5.0316 5.4022 106.1 22.2 80.1 165
2019 06 17 17  21 56 33.338   +16 41 36.23  5.0311 5.4023 106.1 22.2 80.5 165
2019 06 17 18  21 56 33.224   +16 41 46.08  5.0306 5.4024 106.2 22.2 81.0 165